DW9005 Weather Reports


Display with metric or nautical units.
time (UTC)temp
F
wind
direction
speed
MPH
gust
MPH
rain 1hr
in
rain 24hr
in
rain mn
in
humidity
%
barometer
mb
20260906133035 0 0.0 0.0 0.00 0.02 0.02 1012.7
20260906131534 76 0.0 0.0 0.00 0.02 0.02 94 1012.7
20260906130019 75 0.0 0.0 0.00 0.02 0.02 94 1012.4
20260906124512 75 0.0 0.0 0.00 0.02 0.02 94 1012.2
20260906123112 75 0.0 0.0 0.00 0.02 0.02 94 1012.1
20260906121558 74 0.0 0.0 0.01 0.02 0.02 94 1011.4
20260906120054 74 0.0 0.0 0.02 0.02 0.02 94 1011.5
20260906114546 75 0.0 0.0 0.02 0.02 0.02 94 1011.5
20260906113045 75 0.0 0.0 0.02 0.02 0.02 94 1011.8
20260906111515 76 0.0 0.0 0.01 0.01 0.01 92 1011.7
20260906110012 77 0.0 0.0 0.00 0.00 0.00 89 1011.7
20260906104553 77 0.0 0.0 0.00 0.00 0.00 87 1011.8
20260906103054 77 0.0 0.0 0.00 0.00 0.00 86 1011.7
20260906101536 77 0.0 0.0 0.00 0.00 0.00 86 1012.0
20260906100035 77 0.0 0.0 0.00 0.00 0.00 85 1012.3
20260906094523 77 0.0 0.0 0.00 0.00 0.00 87 1012.3
20260906093021 77 0.0 0.0 0.00 0.00 0.00 89 1012.0
20260906091530 77 0.0 0.0 0.00 0.00 0.00 90 1011.6
20260906090017 77 0.0 0.0 0.00 0.00 0.00 89 1011.3
20260906084515 78 0.0 0.0 0.00 0.00 0.00 89 1011.4
20260906083015 78 0.0 0.0 0.00 0.00 0.00 89 1011.3
20260906081513 78 0.0 0.0 0.00 0.00 0.00 89 1011.2
20260906080010 79 0.0 0.0 0.00 0.00 0.00 90 1011.4
20260906074609 79 0.0 0.0 0.00 0.00 0.00 92 1011.6
20260906073051 79 0.0 0.0 0.00 0.00 0.00 92 1011.5
20260906071530 79 0.0 0.0 0.00 0.00 0.00 92 1011.5
20260906070029 79 0.0 0.0 0.00 0.00 0.00 91 1011.4
20260906064511 80 0.0 0.0 0.00 0.00 0.00 91 1011.5
20260906063011 80 0.0 0.0 0.00 0.00 0.00 91 1011.4
20260906061557 80 0.0 0.0 0.00 0.00 0.00 91 1011.4
20260906060052 80 0.0 0.0 0.00 0.00 0.00 91 1011.7
20260906054540 80 0.0 0.0 0.00 0.00 0.00 90 1011.9
20260906053039 80 0.0 0.0 0.00 0.00 0.00 90 1011.7
20260906051547 80 0.0 0.0 0.00 0.00 0.00 90 1012.1
20260906050046 81 0.0 0.0 0.00 0.00 0.00 90 1012.1
20260906044539 81 0.0 0.0 0.00 0.00 0.00 89 1012.2
20260906043038 81 0.0 0.0 0.00 0.00 0.00 88 1012.2
20260906041541 82 0.0 0.0 0.00 0.00 0.00 88 1012.0
20260906040042 82 0.0 0.0 0.00 0.00 0.00 87 1012.4
20260906034518 82 0.0 0.0 0.00 0.00 0.00 86 1012.3
20260906033034 82 0.0 0.0 0.00 0.00 0.00 87 1012.3
20260906031606 82 0.0 0.0 0.00 0.00 0.00 87 1012.6
20260906030101 82 0.0 0.0 0.00 0.00 0.00 86 1012.3
20260906024543 82 0.0 0.0 0.00 0.00 0.00 85 1012.0
20260906023043 83 0.0 0.0 0.00 0.00 0.00 84 1011.9
20260906021525 83 0.0 0.0 0.00 0.00 0.00 83 1011.8
20260906020025 84 0.0 0.0 0.00 0.00 0.00 82 1011.8
20260906014506 85 0.0 0.0 0.00 0.00 0.00 81 1011.5
20260906013012 86 0.0 0.0 0.00 0.00 0.00 79 1011.2
20260906011550 86 0.0 0.0 0.00 0.00 0.00 78 1010.8
20260906010048 87 0.0 0.0 0.00 0.00 0.00 77 1010.4
20260906004531 88 0.0 0.0 0.00 0.00 0.00 76 1010.2
20260906003030 89 0.0 0.0 0.00 0.00 0.00 73 1010.3
20260906001512 90 0.0 0.0 0.00 0.00 0.00 70 1010.3
20260906000014 90 0.0 0.0 0.00 0.00 0.00 66 1010.2
20260905234556 92 0.0 0.0 0.00 0.00 0.00 64 1010.3
20260905233053 94 0.0 0.0 0.00 0.00 0.00 62 1010.0
20260905231543 95 0.0 0.0 0.00 0.00 0.00 55 1010.1
20260905230049 96 0.0 0.0 0.00 0.00 0.00 55 1010.1
20260905224559 95 0.0 0.0 0.00 0.00 0.00 55 1010.0
20260905223042 94 0.0 0.0 0.00 0.00 0.00 56 1010.0
20260905221555 95 0.0 0.0 0.00 0.00 0.00 54 1009.9
20260905220042 94 0.0 0.0 0.00 0.00 0.00 56 1010.0
20260905214539 96 0.0 0.0 0.00 0.00 0.00 53 1010.0
20260905213038 97 0.0 0.0 0.00 0.00 0.00 51 1010.1
20260905211519 98 0.0 0.0 0.00 0.00 0.00 50 1010.2
20260905210018 98 0.0 0.0 0.00 0.00 0.00 50 1010.3
20260905204606 97 0.0 0.0 0.00 0.00 0.00 50 1010.4
20260905203117 98 0.0 0.0 0.00 0.00 0.00 50 1010.5
20260905201544 97 0.0 0.0 0.00 0.00 0.00 50 1010.5
20260905200050 97 0.0 0.0 0.00 0.00 0.00 52 1010.7
20260905194519 96 0.0 0.0 0.00 0.00 0.00 52 1010.8
20260905193017 96 0.0 0.0 0.00 0.00 0.00 52 1011.2
20260905191558 96 0.0 0.0 0.00 0.00 0.00 53 1011.3
20260905190056 96 0.0 0.0 0.00 0.00 0.00 54 1011.5
20260905184536 95 0.0 0.0 0.00 0.00 0.00 56 1011.9
20260905183034 95 0.0 0.0 0.00 0.00 0.00 56 1012.1
20260905181516 96 0.0 0.0 0.00 0.00 0.00 57 1012.3
20260905180013 94 0.0 0.0 0.00 0.00 0.00 59 1012.6
20260905174555 93 0.0 0.0 0.00 0.00 0.00 62 1012.8
20260905173056 94 0.0 0.0 0.00 0.00 0.00 58 1013.0
20260905171542 94 0.0 0.0 0.00 0.00 0.00 60 1013.2
20260905170036 94 0.0 0.0 0.00 0.00 0.00 59 1013.5
20260905164517 93 0.0 0.0 0.00 0.00 0.00 64 1013.6
20260905163016 94 0.0 0.0 0.00 0.00 0.00 60 1013.7
20260905161556 93 0.0 0.0 0.00 0.00 0.00 62 1013.8
20260905160120 92 0.0 0.0 0.00 0.00 0.00 65 1013.8
20260905154532 91 0.0 0.0 0.00 0.00 0.00 69 1013.7
20260905153031 90 0.0 0.0 0.00 0.00 0.00 72 1013.8
20260905151510 89 0.0 0.0 0.00 0.00 0.00 71 1013.9
20260905150010 88 0.0 0.0 0.00 0.00 0.00 73 1014.0
20260905144548 87 0.0 0.0 0.00 0.00 0.00 74 1014.0
20260905143046 86 0.0 0.0 0.00 0.00 0.00 78 1014.1
20260905141524 0 0.0 0.0 0.00 0.00 0.00 1014.2
20260905140018 0 0.0 0.0 0.00 0.00 0.00 1014.3
20260905134621 0 0.0 0.0 0.00 0.00 0.00 1014.3